SCP
0 0 0 0 0 0 0 0 0 0 0 0 0 0 0 -0 -0 -0 -0 0 0 0 0 0 0 0 0 0 0 0 0 0 0 0 0 0 0 0 0 0 0 0 0 0
0 0 0 0 0 0 0 0 0 0 0 0 0 0 0 0 -0 -0 0 0 0 0 0 0 0 0 0 0 0 0 0 0 0 0 0 0 0 0 0 0 0 0 0 0
0 0 0 0 0 0 0 0 0 0 0 0 0 0 0 0 0 0 0 0 0 0 0 0 0 0 0 0 0 0 0 0 0 0 0 0 0 0 0 0 0 0 0 0
0 0 0 0 0 0 0 0 0 0 0 0 0 0 0 0 0 0 0 0 0 0 0 0 0 0 0 0 0 0 0 0 0 0 0 0 0 0 0 0 0 0 0 0
0 0 0 0 0 0 0 0 0 0 0 0 0 0 0 0 0 0 0 0 0 0 0 0 0 0 0 0 0 0 0 0 0 0 0 0 0 0 0 0 0 0 0 0
0 0 0 0 0 0 0 0 0 0 0 0 0 0 0 0 0 0 0 0 0 0 0 0 0 0 0 0 0 0 0 0 0 0 0 0 0 0 0 0 0 0 0 0
0 0 0 0 0 0 0 0 0 0 0 0 0 0 0 0 0 0 0 0 0 0 0 0 0 0 0 0 0 0 0 0 0 0 0 0 0 0 0 0 0 0 0 0
0 0 0 0 0 0 0 0 0 0 0 0 0 0 0 0 0 0 0 0 0 0 0 0 0 0 0 0 0 0 0 0 0 0 0 0 0 0 0 0 0 0 0 0
0 0 0 0 0 0 0 0 0 0 0 0 0 0 0 0 0 0 -0 0 0 0 0 0 0 0 0 0 0 0 0 0 0 0 0 0 0 0 0 0 0 0 0 0
0 0 0 0 0 0 0 0 0 0 0 0 0 0 0 0 0 0 -0 0 0 0 0 0 0 0 0 0 0 0 0 0 0 0 0 0 0 0 0 0 0 0 0 0
0 0 0 0 0 0 0 0 0 0 0 0 0 0 0 0 0 0 0 0 0 0 0 0 0 0 0 0 0 0 0 0 0 0 0 0 0 0 0 0 0 0 0 0
0 0 0 0 0 0 0 0 0 0 0 0 0 0 0 0 0 0 0 0 0 0 0 0 0 0 0 0 0 0 0 0 0 0 0 0 0 0 0 0 0 0 0 0
0 0 0 0 0 0 0 0 0 0 0 0 0 0 0 0 0 0 0 0 0 0 0 0 0 0 0 0 0 0 0 0 0 0 0 0 0 0 0 0 0 0 0 0
0 0 0 0 0 0 0 0 0 0 0 0 0 0 0 0 0 0 0 0 0 0 0 0 0 0 0 0 0 0 0 0 0 0 0 0 0 0 0 0 0 0 0 0
0 0 0 0 0 0 0 0 0 0 0 0 0 0 0 0 0 0 0 0 0 0 0 0 0 0 0 0 0 0 0 0 0 0 0 0 0 0 0 0 0 0 0 0
0 0 0 0 0 0 0 0 0 0 0 0 0 0 0 0 0 0 0 0 0 0 0 0 0 0 0 0 0 0 0 0 0 0 0 0 0 0 0 0 0 0 0 0
0 0 0 0 0 0 0 0 0 0 0 0 0 0 0 0 0 0 0 0 0 0 0 0 0 0 0 0 0 0 0 0 0 0 0 0 0 0 0 0 0 0 0 0
0 0 0 0 0 0 0 0 0 0 0 0 0 0 0 0 0 0 0 0 0 0 0 0 0 0 0 0 0 0 0 0 0 0 0 0 0 0 0 0 0 0 0 0
0 0 0 0 0 0 0 0 0 0 0 0 0 0 0 0 0 0 0 0 0 0 0 0 0 0 0 0 0 0 0 0 0 0 0 0 0 0 0 0 0 0 0 0
0 0 0 0 0 0 0 0 0 0 0 0 0 0 0 0 0 0 0 0 0 0 0 0 0 0 0 0 0 0 0 0 0 0 0 0 0 0 0 0 0 0 0 0
0 0 0 0 0 0 0 0 0 0 0 0 0 0 0 0 0 0 0 0 0 0 0 0 0 0 0 0 0 0 0 0 0 0 0 0 0 0 0 0 0 0 0 0
0 0 0 0 0 0 0 0 0 0 0 0 0 0 0 0 0 0 0 0 0 0 0 0 0 0 0 0 0 0 0 0 0 0 0 0 0 0 0 0 0 0 0 0
0 0 0 0 0 0 0 0 0 0 0 0 0 0 0 0 0 0 0 0 0 0 0 0 0 0 0 0 0 0 0 0 0 0 0 0 0 0 0 0 0 0 0 0
0 0 0 0 0 0 0 0 0 0 0 0 0 0 0 0 0 0 0 0 0 0 0 0 0 0 0 0 0 0 0 0 0 0 0 0 0 0 0 0 0 0 0 0
0 0 0 0 0 0 0 0 0 0 0 0 0 0 0 0 0 0 0 0 0 0 0 0 0 0 0 0 0 0 0 0 0 0 0 0 0 0 0 0 0 0 0 0
0 0 0 0 0 0 0 0 0 0 0 0 0 0 0 0 0 0 0 0 0 0 0 0 0 0 0 0 0 0 0 0 0 0 0 0 0 0 0 0 0 0 0 0
0 0 0 0 0 0 0 0 0 0 0 0 0 0 0 0 0 0 0 0 0 0 0 0 0 0 0 0 0 0 0 0 0 0 0 0 0 0 0 0 0 0 0 0
Wind_Speed_500mb
5 8 11 17 33 33 44 56 24 63 46 44 35 38 57 22 31 34 37 39 32 31 38 47 56 58 58 54 51 51 51 51 54 56 75 77 64 55 58 63 60 53 47 41
4 2 14 13 33 50 54 43 42 35 42 12 16 47 48 62 58 50 57 52 40 32 37 47 54 57 56 54 54 55 52 56 57 63 73 68 65 60 67 67 60 53 47 41
11 2 10 8 39 35 38 42 50 34 64 11 16 32 57 70 70 67 62 52 48 47 49 47 53 56 58 56 55 57 55 59 65 68 74 72 69 72 70 65 57 51 47 41
6 5 11 15 8 30 42 36 52 47 38 15 41 59 55 61 55 50 55 59 52 42 39 46 53 57 56 58 59 59 61 66 70 75 76 75 75 73 70 63 57 52 45 40
11 9 12 23 13 14 18 35 36 38 39 49 59 35 65 75 68 67 62 54 51 48 47 46 50 54 58 61 63 65 68 71 75 77 77 77 78 76 71 64 58 52 46 42
7 15 23 4 16 21 13 36 25 43 31 34 28 13 28 26 31 39 44 51 54 44 40 40 41 48 60 67 72 74 74 74 76 78 79 81 79 76 70 62 56 53 49 45
7 13 14 11 10 21 16 11 3 4 27 14 12 21 10 5 10 19 20 22 29 34 38 38 40 43 52 65 77 72 74 75 78 81 82 81 78 74 67 65 62 57 52 47
5 2 28 18 10 31 11 4 1 2 3 8 23 18 17 21 22 18 21 27 30 31 30 32 33 36 45 58 61 74 76 79 84 86 87 84 80 75 72 68 64 60 55 48
21 12 3 29 6 11 3 2 2 2 3 3 5 5 2 5 14 17 16 19 24 26 25 25 25 28 37 40 50 62 74 84 88 90 91 89 87 83 79 74 69 63 56 46
8 5 5 18 11 13 10 10 9 8 5 6 6 7 7 9 11 14 21 18 18 18 18 16 17 23 29 33 37 45 58 75 87 92 94 93 91 87 83 79 73 64 53 43
1 4 6 6 16 18 19 16 14 14 13 13 10 10 11 13 11 13 14 17 15 14 14 12 11 16 23 26 31 39 48 60 74 89 96 98 96 91 85 75 65 58 48 39
8 18 11 8 22 23 21 19 20 17 16 16 15 17 17 17 16 16 17 19 20 18 15 15 14 10 14 20 27 35 43 49 60 76 91 96 94 91 84 68 60 54 45 34
15 28 26 32 25 24 25 20 16 12 12 11 12 12 11 12 15 19 22 24 25 26 24 18 13 10 11 14 21 28 36 42 53 64 82 96 100 92 80 68 64 57 46 64
39 48 28 23 23 24 22 25 24 24 23 22 20 16 15 13 13 15 18 21 22 24 24 21 15 12 12 16 20 24 33 37 42 54 71 88 91 83 75 72 74 71 70 74
26 15 30 28 27 30 30 28 27 23 19 17 15 14 13 14 16 20 22 23 23 23 24 25 22 20 18 18 18 21 30 36 42 46 56 70 80 76 74 73 76 69 79 75
27 22 28 28 31 33 28 24 18 17 12 10 9 9 12 14 14 16 18 19 20 22 24 24 26 26 25 24 23 24 26 31 37 42 48 55 73 79 77 78 84 85 89 73
33 32 37 37 33 28 21 18 14 9 6 4 4 6 7 8 11 12 14 17 19 21 22 23 23 23 26 28 27 24 24 26 31 37 41 48 63 77 79 82 91 88 88 65
25 31 29 28 24 17 12 7 4 4 3 4 5 6 5 6 9 12 14 16 19 20 21 22 23 26 28 30 31 31 30 28 31 36 43 55 64 74 79 81 84 85 80 62
27 25 24 19 15 11 7 5 6 6 6 7 8 6 9 12 14 15 17 16 16 18 20 23 27 29 30 31 32 33 33 34 35 40 47 54 62 69 73 76 77 78 75 60
20 18 16 14 14 14 14 12 9 9 8 7 8 9 8 10 14 17 19 23 24 27 29 31 32 34 35 37 35 34 33 34 37 42 48 55 62 68 71 74 76 76 73 72
21 21 19 20 18 17 17 15 11 6 3 5 7 10 13 16 19 21 23 25 26 28 32 35 37 38 39 40 40 40 40 38 37 38 44 51 56 61 66 69 71 73 75 79
19 17 16 15 14 14 11 7 3 1 6 10 14 17 19 21 23 26 29 32 32 36 40 43 46 48 49 50 49 47 46 45 44 44 45 46 49 55 60 62 64 66 68 71
15 13 12 8 6 3 3 6 10 13 15 18 22 26 29 32 35 36 38 36 40 46 50 52 53 56 56 55 54 54 53 52 51 51 51 51 52 52 53 55 56 57 59 61
7 4 3 3 5 7 10 14 15 17 20 24 28 31 32 32 35 38 40 47 51 55 58 59 59 57 57 55 53 52 51 50 49 49 49 49 48 48 49 49 49 48 50 52
8 7 8 10 11 12 14 18 21 23 25 29 33 36 38 40 41 42 45 46 49 52 54 55 56 55 53 52 51 48 46 45 44 43 43 43 42 42 43 43 44 46 47 48
14 17 20 21 24 26 28 27 26 27 27 27 32 34 36 38 39 39 39 40 42 44 47 49 50 50 49 46 44 42 41 39 39 40 39 38 38 37 37 37 38 40 42 44
24 23 24 28 32 32 35 36 35 34 37 37 34 35 34 33 33 32 32 32 31 31 33 36 39 41 41 40 38 35 32 31 31 32 31 32 33 34 35 36 37 38 40 41
Wind_Direction_500mb
91 139 143 171 179 178 199 220 200 241 247 241 260 287 292 284 297 311 308 305 292 261 244 232 230 232 234 237 238 233 226 216 209 212 209 205 206 215 221 206 203 205 209 213
163 298 187 179 193 193 207 216 233 254 272 174 228 248 263 281 291 297 288 289 281 270 256 234 234 236 239 237 232 226 218 212 209 213 207 206 211 219 209 204 204 207 210 214
230 170 116 310 210 197 209 207 220 228 243 138 220 228 248 258 266 273 274 279 283 277 267 251 241 239 240 236 230 226 221 212 210 211 212 209 211 210 206 205 208 211 212 216
161 57 203 250 176 198 205 212 225 243 254 203 242 252 260 265 264 263 267 270 272 274 274 259 243 237 235 233 230 225 219 214 211 212 212 210 208 208 208 208 211 214 215 219
149 192 290 263 176 145 165 245 228 238 248 251 256 263 268 265 263 265 273 278 276 272 267 263 255 243 236 232 228 224 221 217 213 212 210 208 208 208 210 212 214 216 218 222
126 176 223 138 174 160 111 272 190 215 224 227 189 222 253 280 278 280 276 278 281 277 271 263 259 248 239 236 230 227 224 220 216 214 212 211 211 212 213 215 218 220 222 223
186 225 283 247 99 143 160 254 323 312 257 209 191 237 241 293 326 322 325 310 295 288 282 278 265 252 241 236 235 235 229 224 221 218 216 215 216 216 217 217 218 220 223 223
70 152 255 164 115 184 195 152 102 259 92 228 237 233 257 288 310 315 315 295 288 286 284 280 275 264 253 247 245 238 233 229 224 222 219 218 218 218 218 220 222 223 224 223
185 204 210 183 117 169 137 114 96 130 76 76 105 109 290 356 355 360 345 318 306 296 291 279 273 268 264 262 252 246 238 232 228 225 223 221 220 219 220 221 222 223 224 221
97 255 116 176 177 182 167 145 117 103 78 74 68 48 25 16 360 337 337 332 320 316 316 314 292 277 269 263 259 253 245 238 233 228 226 223 223 223 224 224 223 222 219 212
23 301 112 194 189 171 147 143 133 123 111 91 77 51 22 14 6 352 334 330 333 328 321 306 293 283 277 271 261 255 250 244 237 230 227 225 225 226 226 227 229 229 215 226
199 167 137 145 180 171 161 152 148 141 123 97 82 68 50 36 27 13 359 351 349 348 336 317 304 291 277 270 263 259 255 250 242 236 230 228 227 227 225 224 223 216 220 243
155 149 129 130 133 146 151 139 134 134 114 102 92 83 75 56 43 34 25 15 8 6 2 353 342 325 302 285 272 267 262 257 250 242 233 228 226 224 224 221 219 216 232 250
131 129 117 140 122 126 135 131 127 114 104 96 87 78 69 52 32 23 18 23 20 15 13 14 6 349 326 308 297 282 267 260 258 253 242 234 230 226 227 228 231 234 246 256
129 112 135 126 126 129 133 131 124 110 98 92 84 73 62 46 32 29 27 25 20 17 16 10 6 349 333 323 312 303 287 270 261 254 249 242 230 229 233 235 235 241 253 255
151 148 152 153 144 142 149 142 141 127 114 85 58 41 28 15 10 1 360 359 359 1 1 357 353 351 347 337 318 311 296 276 265 263 258 239 228 230 231 234 237 246 248 257
151 139 148 143 145 140 134 123 113 107 87 51 24 9 0 350 346 341 346 348 343 343 340 337 336 332 330 329 325 314 301 284 271 258 251 241 232 235 240 246 248 243 256 259
160 150 151 149 139 129 120 103 67 53 39 52 57 53 34 1 2 1 358 355 347 340 335 334 330 328 324 322 319 315 306 288 270 263 255 245 242 244 248 252 253 254 264 260
127 131 129 134 137 139 137 130 127 101 61 45 31 9 6 8 6 0 2 358 344 339 338 341 338 335 331 326 320 314 308 299 283 268 262 258 256 256 258 260 261 260 268 263
125 127 126 130 136 139 138 132 123 103 87 75 59 40 23 9 2 353 347 344 343 342 339 337 333 329 326 325 325 321 315 306 292 281 269 263 262 263 264 264 265 267 267 262
124 123 128 133 136 131 130 126 120 107 61 0 348 336 335 333 330 332 333 331 330 329 329 329 327 327 325 322 319 316 311 306 301 292 285 279 273 269 268 267 267 266 265 263
125 127 128 136 144 141 137 130 120 313 308 305 307 310 312 313 314 314 316 316 316 316 318 318 317 316 315 314 312 309 307 304 301 296 290 285 279 275 273 271 270 268 267 267
121 124 125 139 157 179 255 288 293 294 298 301 305 307 308 309 310 313 311 309 309 309 308 307 305 304 302 301 300 299 297 295 293 291 289 286 283 279 276 273 272 271 271 270
95 102 145 211 258 279 289 297 300 301 300 300 298 297 299 300 301 303 304 305 307 307 307 306 304 301 298 294 291 288 286 285 285 285 284 283 281 280 278 277 275 274 272 271
350 338 319 311 299 290 283 282 285 289 294 294 294 295 296 299 302 306 308 311 313 314 314 311 308 304 299 296 293 290 288 287 286 284 283 282 281 280 279 279 277 275 273 271
322 313 310 308 306 305 305 305 303 301 299 300 300 302 303 305 307 309 312 318 323 325 324 322 316 309 304 299 297 295 294 293 293 292 292 290 286 285 283 281 280 280 279 277
312 306 305 307 308 308 305 304 305 303 301 301 301 301 302 303 306 310 315 320 324 327 329 329 326 321 316 311 308 306 305 303 302 301 299 296 293 291 290 289 288 286 284 281
Wind_Speed_850mb
5 8 11 17 33 33 44 56 24 63 46 44 35 38 57 22 31 34 37 39 32 31 38 47 56 58 58 54 51 51 51 51 54 56 75 77 64 55 58 63 60 53 47 41
4 2 14 13 33 50 54 43 42 35 42 12 16 47 48 62 58 50 57 52 40 32 37 47 54 57 56 54 54 55 52 56 57 63 73 68 65 60 67 67 60 53 47 41
11 2 10 8 39 35 38 42 50 34 64 11 16 32 57 70 70 67 62 52 48 47 49 47 53 56 58 56 55 57 55 59 65 68 74 72 69 72 70 65 57 51 47 41
6 5 11 15 8 30 42 36 52 47 38 15 41 59 55 61 55 50 55 59 52 42 39 46 53 57 56 58 59 59 61 66 70 75 76 75 75 73 70 63 57 52 45 40
11 9 12 23 13 14 18 35 36 38 39 49 59 35 65 75 68 67 62 54 51 48 47 46 50 54 58 61 63 65 68 71 75 77 77 77 78 76 71 64 58 52 46 42
7 15 23 4 16 21 13 36 25 43 31 34 28 13 28 26 31 39 44 51 54 44 40 40 41 48 60 67 72 74 74 74 76 78 79 81 79 76 70 62 56 53 49 45
7 13 14 11 10 21 16 11 3 4 27 14 12 21 10 5 10 19 20 22 29 34 38 38 40 43 52 65 77 72 74 75 78 81 82 81 78 74 67 65 62 57 52 47
5 2 28 18 10 31 11 4 1 2 3 8 23 18 17 21 22 18 21 27 30 31 30 32 33 36 45 58 61 74 76 79 84 86 87 84 80 75 72 68 64 60 55 48
21 12 3 29 6 11 3 2 2 2 3 3 5 5 2 5 14 17 16 19 24 26 25 25 25 28 37 40 50 62 74 84 88 90 91 89 87 83 79 74 69 63 56 46
8 5 5 18 11 13 10 10 9 8 5 6 6 7 7 9 11 14 21 18 18 18 18 16 17 23 29 33 37 45 58 75 87 92 94 93 91 87 83 79 73 64 53 43
1 4 6 6 16 18 19 16 14 14 13 13 10 10 11 13 11 13 14 17 15 14 14 12 11 16 23 26 31 39 48 60 74 89 96 98 96 91 85 75 65 58 48 39
8 18 11 8 22 23 21 19 20 17 16 16 15 17 17 17 16 16 17 19 20 18 15 15 14 10 14 20 27 35 43 49 60 76 91 96 94 91 84 68 60 54 45 34
15 28 26 32 25 24 25 20 16 12 12 11 12 12 11 12 15 19 22 24 25 26 24 18 13 10 11 14 21 28 36 42 53 64 82 96 100 92 80 68 64 57 46 64
39 48 28 23 23 24 22 25 24 24 23 22 20 16 15 13 13 15 18 21 22 24 24 21 15 12 12 16 20 24 33 37 42 54 71 88 91 83 75 72 74 71 70 74
26 15 30 28 27 30 30 28 27 23 19 17 15 14 13 14 16 20 22 23 23 23 24 25 22 20 18 18 18 21 30 36 42 46 56 70 80 76 74 73 76 69 79 75
27 22 28 28 31 33 28 24 18 17 12 10 9 9 12 14 14 16 18 19 20 22 24 24 26 26 25 24 23 24 26 31 37 42 48 55 73 79 77 78 84 85 89 73
33 32 37 37 33 28 21 18 14 9 6 4 4 6 7 8 11 12 14 17 19 21 22 23 23 23 26 28 27 24 24 26 31 37 41 48 63 77 79 82 91 88 88 65
25 31 29 28 24 17 12 7 4 4 3 4 5 6 5 6 9 12 14 16 19 20 21 22 23 26 28 30 31 31 30 28 31 36 43 55 64 74 79 81 84 85 80 62
27 25 24 19 15 11 7 5 6 6 6 7 8 6 9 12 14 15 17 16 16 18 20 23 27 29 30 31 32 33 33 34 35 40 47 54 62 69 73 76 77 78 75 60
20 18 16 14 14 14 14 12 9 9 8 7 8 9 8 10 14 17 19 23 24 27 29 31 32 34 35 37 35 34 33 34 37 42 48 55 62 68 71 74 76 76 73 72
21 21 19 20 18 17 17 15 11 6 3 5 7 10 13 16 19 21 23 25 26 28 32 35 37 38 39 40 40 40 40 38 37 38 44 51 56 61 66 69 71 73 75 79
19 17 16 15 14 14 11 7 3 1 6 10 14 17 19 21 23 26 29 32 32 36 40 43 46 48 49 50 49 47 46 45 44 44 45 46 49 55 60 62 64 66 68 71
15 13 12 8 6 3 3 6 10 13 15 18 22 26 29 32 35 36 38 36 40 46 50 52 53 56 56 55 54 54 53 52 51 51 51 51 52 52 53 55 56 57 59 61
7 4 3 3 5 7 10 14 15 17 20 24 28 31 32 32 35 38 40 47 51 55 58 59 59 57 57 55 53 52 51 50 49 49 49 49 48 48 49 49 49 48 50 52
8 7 8 10 11 12 14 18 21 23 25 29 33 36 38 40 41 42 45 46 49 52 54 55 56 55 53 52 51 48 46 45 44 43 43 43 42 42 43 43 44 46 47 48
14 17 20 21 24 26 28 27 26 27 27 27 32 34 36 38 39 39 39 40 42 44 47 49 50 50 49 46 44 42 41 39 39 40 39 38 38 37 37 37 38 40 42 44
24 23 24 28 32 32 35 36 35 34 37 37 34 35 34 33 33 32 32 32 31 31 33 36 39 41 41 40 38 35 32 31 31 32 31 32 33 34 35 36 37 38 40 41
Wind_Direction_850mb
91 139 143 171 179 178 199 220 200 241 247 241 260 287 292 284 297 311 308 305 292 261 244 232 230 232 234 237 238 233 226 216 209 212 209 205 206 215 221 206 203 205 209 213
163 298 187 179 193 193 207 216 233 254 272 174 228 248 263 281 291 297 288 289 281 270 256 234 234 236 239 237 232 226 218 212 209 213 207 206 211 219 209 204 204 207 210 214
230 170 116 310 210 197 209 207 220 228 243 138 220 228 248 258 266 273 274 279 283 277 267 251 241 239 240 236 230 226 221 212 210 211 212 209 211 210 206 205 208 211 212 216
161 57 203 250 176 198 205 212 225 243 254 203 242 252 260 265 264 263 267 270 272 274 274 259 243 237 235 233 230 225 219 214 211 212 212 210 208 208 208 208 211 214 215 219
149 192 290 263 176 145 165 245 228 238 248 251 256 263 268 265 263 265 273 278 276 272 267 263 255 243 236 232 228 224 221 217 213 212 210 208 208 208 210 212 214 216 218 222
126 176 223 138 174 160 111 272 190 215 224 227 189 222 253 280 278 280 276 278 281 277 271 263 259 248 239 236 230 227 224 220 216 214 212 211 211 212 213 215 218 220 222 223
186 225 283 247 99 143 160 254 323 312 257 209 191 237 241 293 326 322 325 310 295 288 282 278 265 252 241 236 235 235 229 224 221 218 216 215 216 216 217 217 218 220 223 223
70 152 255 164 115 184 195 152 102 259 92 228 237 233 257 288 310 315 315 295 288 286 284 280 275 264 253 247 245 238 233 229 224 222 219 218 218 218 218 220 222 223 224 223
185 204 210 183 117 169 137 114 96 130 76 76 105 109 290 356 355 360 345 318 306 296 291 279 273 268 264 262 252 246 238 232 228 225 223 221 220 219 220 221 222 223 224 221
97 255 116 176 177 182 167 145 117 103 78 74 68 48 25 16 360 337 337 332 320 316 316 314 292 277 269 263 259 253 245 238 233 228 226 223 223 223 224 224 223 222 219 212
23 301 112 194 189 171 147 143 133 123 111 91 77 51 22 14 6 352 334 330 333 328 321 306 293 283 277 271 261 255 250 244 237 230 227 225 225 226 226 227 229 229 215 226
199 167 137 145 180 171 161 152 148 141 123 97 82 68 50 36 27 13 359 351 349 348 336 317 304 291 277 270 263 259 255 250 242 236 230 228 227 227 225 224 223 216 220 243
155 149 129 130 133 146 151 139 134 134 114 102 92 83 75 56 43 34 25 15 8 6 2 353 342 325 302 285 272 267 262 257 250 242 233 228 226 224 224 221 219 216 232 250
131 129 117 140 122 126 135 131 127 114 104 96 87 78 69 52 32 23 18 23 20 15 13 14 6 349 326 308 297 282 267 260 258 253 242 234 230 226 227 228 231 234 246 256
129 112 135 126 126 129 133 131 124 110 98 92 84 73 62 46 32 29 27 25 20 17 16 10 6 349 333 323 312 303 287 270 261 254 249 242 230 229 233 235 235 241 253 255
151 148 152 153 144 142 149 142 141 127 114 85 58 41 28 15 10 1 360 359 359 1 1 357 353 351 347 337 318 311 296 276 265 263 258 239 228 230 231 234 237 246 248 257
151 139 148 143 145 140 134 123 113 107 87 51 24 9 0 350 346 341 346 348 343 343 340 337 336 332 330 329 325 314 301 284 271 258 251 241 232 235 240 246 248 243 256 259
160 150 151 149 139 129 120 103 67 53 39 52 57 53 34 1 2 1 358 355 347 340 335 334 330 328 324 322 319 315 306 288 270 263 255 245 242 244 248 252 253 254 264 260
127 131 129 134 137 139 137 130 127 101 61 45 31 9 6 8 6 0 2 358 344 339 338 341 338 335 331 326 320 314 308 299 283 268 262 258 256 256 258 260 261 260 268 263
125 127 126 130 136 139 138 132 123 103 87 75 59 40 23 9 2 353 347 344 343 342 339 337 333 329 326 325 325 321 315 306 292 281 269 263 262 263 264 264 265 267 267 262
124 123 128 133 136 131 130 126 120 107 61 0 348 336 335 333 330 332 333 331 330 329 329 329 327 327 325 322 319 316 311 306 301 292 285 279 273 269 268 267 267 266 265 263
125 127 128 136 144 141 137 130 120 313 308 305 307 310 312 313 314 314 316 316 316 316 318 318 317 316 315 314 312 309 307 304 301 296 290 285 279 275 273 271 270 268 267 267
121 124 125 139 157 179 255 288 293 294 298 301 305 307 308 309 310 313 311 309 309 309 308 307 305 304 302 301 300 299 297 295 293 291 289 286 283 279 276 273 272 271 271 270
95 102 145 211 258 279 289 297 300 301 300 300 298 297 299 300 301 303 304 305 307 307 307 306 304 301 298 294 291 288 286 285 285 285 284 283 281 280 278 277 275 274 272 271
350 338 319 311 299 290 283 282 285 289 294 294 294 295 296 299 302 306 308 311 313 314 314 311 308 304 299 296 293 290 288 287 286 284 283 282 281 280 279 279 277 275 273 271
322 313 310 308 306 305 305 305 303 301 299 300 300 302 303 305 307 309 312 318 323 325 324 322 316 309 304 299 297 295 294 293 293 292 292 290 286 285 283 281 280 280 279 277
312 306 305 307 308 308 305 304 305 303 301 301 301 301 302 303 306 310 315 320 324 327 329 329 326 321 316 311 308 306 305 303 302 301 299 296 293 291 290 289 288 286 284 281